This demonstration page uses our WeatherBlox Daily Observations layout. Learn more.

Left ArrowRight Arrow

36.17497, -115.13722

Hourly Observations for February 25, 2019

Temp ( °F °C ) Dew Point ( °F °C ) Humidity (%) Winds ( mph kmh ) Pressure ( in mb ) Visibility ( mi km ) Precip ( " mm )
12:53 am 00:53 Clear 41 5 28 -2.2 60 60 NW 5 7 30.13 1020 10 16 0.00 0.00
1:53 am 01:53 Clear 40 4.4 28 -2.2 63 63 NNW 6 9 30.12 1020 10 16 0.00 0.00
2:53 am 02:53 Clear 39 3.9 28 -2.2 65 65 N 3 6 30.11 1020 10 16 0.00 0.00
3:53 am 03:53 Clear 39 3.9 28 -2.2 65 65 Calm 30.10 1019 10 16 0.00 0.00
4:53 am 04:53 Clear 37 2.8 28 -2.2 70 70 N 3 6 30.11 1020 10 16 0.00 0.00
5:53 am 05:53 Clear 37 2.8 28 -2.2 70 70 NNW 6 9 30.12 1020 10 16 0.00 0.00
6:53 am 06:53 Sunny 38 3.3 27 -2.8 65 65 Calm 30.14 1021 10 16 0.00 0.00
7:53 am 07:53 Sunny 41 5 29 -1.7 62 62 Calm 30.15 1021 10 16 0.00 0.00
8:53 am 08:53 Sunny 46 7.8 27 -2.8 47 47 S 6 9 30.16 1021 10 16 0.00 0.00
9:53 am 09:53 Sunny 47 8.3 27 -2.8 46 46 SE 3 6 30.16 1021 10 16 0.00 0.00
10:53 am 10:53 Sunny 50 10 25 -3.9 38 38 ESE 9 15 30.15 1021 10 16 0.00 0.00
11:53 am 11:53 Sunny 52 11.1 25 -3.9 35 35 ESE 6 9 30.12 1020 10 16 0.00 0.00
12:53 pm 12:53 Sunny 54 12.2 26 -3.3 34 34 VRB 3 6 30.08 1019 10 16 0.00 0.00
1:53 pm 13:53 Sunny 56 13.3 26 -3.3 32 32 VRB 6 9 30.07 1018 10 16 0.00 0.00
2:53 pm 14:53 Sunny 56 13.3 26 -3.3 32 32 SSE 6 9 30.06 1018 10 16 0.00 0.00
3:53 pm 15:53 Sunny 58 14.4 27 -2.8 31 31 ENE 5 7 30.04 1017 10 16 0.00 0.00
4:53 pm 16:53 Sunny 57 13.9 28 -2.2 33 33 ESE 3 6 30.04 1017 10 16 0.00 0.00
5:53 pm 17:53 Clear 55 12.8 28 -2.2 35 35 ENE 5 7 30.05 1018 10 16 0.00 0.00
6:53 pm 18:53 Clear 53 11.7 28 -2.2 38 38 NE 5 7 30.06 1018 10 16 0.00 0.00
7:53 pm 19:53 Clear 51 10.6 28 -2.2 41 41 Calm 30.06 1018 10 16 0.00 0.00
8:53 pm 20:53 Clear 50 10 29 -1.7 44 44 ENE 7 11 30.06 1018 10 16 0.00 0.00
9:53 pm 21:53 Clear 50 10 30 -1.1 46 46 ENE 5 7 30.06 1018 10 16 0.00 0.00
10:53 pm 22:53 Clear 49 9.4 30 -1.1 48 48 E 8 13 30.06 1018 10 16 0.00 0.00
11:53 pm 23:53 Clear 49 9.4 30 -1.1 48 48 ENE 7 11 30.06 1018 10 16 0.00 0.00

Powered by AerisWeather